MAZAALAI (NUMSAT-1) (42822 NORAD) Tracking and Keplerian Element Data

This shows tracking and keplerian element data for the satellite.

Feedback or suggestion? Click here.




ElementValue
Catalog42822
NameMAZAALAI (NUMSAT-1)
Epoch Orbit7818
Epoch Day322.94873276
Epoch Year2018
RAAN289.9334
Inclination51.6341
Eccentricity0.0004455
Argument of Perigee65.2435
Mean Anonmoly294.9028
Mean Motion15.75978341
Decay Rate0.0004019
L11 42822U 98067MW 18322.94873276 .00040190 00000-0 25617-3 0 9998
L22 42822 51.6341 289.9334 0004455 65.2435 294.9028 15.75978341 78189

Live tracking and technical data element details for MAZAALAI (NUMSAT-1) (NORAD 42822). MAZAALAI (NUMSAT-1) can be tracked NOW for your location showing map with azimuth and elevation plus other details from your city location.

Track the satellite on the map from your city or location and see movement details for azimuth, elevation, latitude, longitude, range, height, and movement on the map or in text.







IsCatalogInMostPopularTable: catalog: 42822, numindb: 153
Update: records affected: 1



GetName: 42822 MAZAALAI (NUMSAT-1)

Hit Count: updated at: Mon, 19 Nov 2018 13:26:11 GMT